This is the latest recevied weather packets stored in our database for station/object KI5NYZ-13. If no packets are shown the sender has not sent any weather packets the latest 10 day(s).
| Time | Temp. | Humidity | Pressure | Rain* | Wind** | Luminosity | Snow |
|---|---|---|---|---|---|---|---|
| 1778048076 | 17.22° C | 50% | 1007.9 hPa | 0 mm | - | - | - |
| 1778046275 | 17.22° C | 48% | 1007.3 hPa | 0 mm | - | - | - |
| 1778044474 | 18.89° C | 41% | 1006.1 hPa | 0 mm | - | - | - |
| 1778042035 | 20° C | 38% | 1005.6 hPa | 0 mm | - | - | - |
| 1778040234 | 20.56° C | 37% | 1005.2 hPa | 0 mm | - | - | - |
| 1778038434 | 21.67° C | 34% | 1004.8 hPa | 0 mm | - | - | - |
| 1778036633 | 21.11° C | 35% | 1005 hPa | 0 mm | - | - | - |
| 1778034832 | 22.22° C | 33% | 1004.5 hPa | 0 mm | - | - | - |
| 1778033031 | 22.78° C | 30% | 1003.8 hPa | 0 mm | - | - | - |
| 1778031229 | 23.89° C | 27% | 1003.1 hPa | 0 mm | - | - | - |
| 1778029429 | 24.44° C | 26% | 1002.5 hPa | 0 mm | - | - | - |
| 1778027627 | 25.56° C | 25% | 1002.2 hPa | 0 mm | - | - | - |
| 1778025827 | 26.11° C | 24% | 1002 hPa | 1.52 mm | - | - | - |
| 1778024026 | 25.56° C | 24% | 1001.9 hPa | 2.03 mm | - | - | - |
| 1778022224 | 25.56° C | 23% | 1001.9 hPa | 0.25 mm | - | - | - |
| 1778020423 | 25.56° C | 22% | 1002.1 hPa | 0 mm | - | - | - |
| 1778018622 | 26.11° C | 23% | 1002.4 hPa | 0 mm | - | - | - |
| 1778016822 | 25.56° C | 24% | 1002.5 hPa | 0 mm | - | - | - |
| 1778015020 | 26.67° C | 22% | 1002.3 hPa | 0 mm | - | - | - |
| 1778013220 | 26.67° C | 22% | 1002.6 hPa | 0 mm | - | - | - |
| 1778011418 | 26.67° C | 23% | 1002.7 hPa | 0 mm | - | - | - |
| 1778009617 | 26.11° C | 24% | 1002.9 hPa | 0 mm | - | - | - |
| 1778007816 | 26.67° C | 23% | 1003 hPa | 0 mm | - | - | - |
| 1778006016 | 26.67° C | 23% | 1003.1 hPa | 0 mm | - | - | - |
| 1778004214 | 26.67° C | 22% | 1003.3 hPa | 0 mm | - | - | - |
* Rain latest hour (hover to see other rain measurements)
** Current wind speed in m/s (hover to see current wind gust speed)